logo tempoitalia

Diretta Meteo Waco, Stati Uniti (USA)lunedì 31 agosto ore 00:51

Mappa
Sereno 29 °C Sereno 24 Ore: T.min 26 T.max 38
Ponente Sud Km/h 22.2 Punto di rugiada: 20 °C Umidità: 58% Visibilità: 10 Km
Il sole sorge alle: 07:04 Il sole tramonta alle: 19:54
31 Agosto 2026 00:51 tempo osservato: Sereno Sereno 29 58 1015 vento: Nord S 22.2
30 Agosto 2026 23:51 tempo osservato: Sereno Sereno 31 55 1014 vento: Nord S 24
30 Agosto 2026 22:51 tempo osservato: Sereno Sereno 32 43 1014 vento: Nord S/SE 16.7
30 Agosto 2026 21:51 tempo osservato: Sereno Sereno 31 43 1014 vento: Nord SE 14.8
30 Agosto 2026 20:51 tempo osservato: Sereno Sereno 32 40 1012 vento: Nord SE 13
30 Agosto 2026 19:51 tempo osservato: Sereno Sereno 34 36 1012 vento: Nord S/SE 16.7
30 Agosto 2026 18:51 tempo osservato: Sereno Sereno 36 30 1012 vento: Nord S/SE 18.5
30 Agosto 2026 17:51 tempo osservato: Poco Nuvoloso Poco Nuvoloso 37 28 1012 vento: Nord S 14.8
30 Agosto 2026 16:51 tempo osservato: Poco Nuvoloso Poco Nuvoloso 38 29 1012 vento: Nord S 22.2
30 Agosto 2026 15:51 tempo osservato: Poco Nuvoloso Poco Nuvoloso 38 29 1013 vento: Nord S/SE 18.5
30 Agosto 2026 14:51 tempo osservato: Sereno Sereno 38 27 1014 vento: Nord S/SO 14.8
30 Agosto 2026 13:51 tempo osservato: Sereno Sereno 37 30 1015 vento: Nord S 18.5
30 Agosto 2026 12:51 tempo osservato: Sereno Sereno 35 36 1016 vento: Nord S/SO 16.7
30 Agosto 2026 11:51 tempo osservato: Sereno Sereno 34 41 1017 vento: Nord S 18.5
30 Agosto 2026 10:51 tempo osservato: Sereno Sereno 32 52 1017 vento: Nord S/SO 18.5
30 Agosto 2026 09:51 tempo osservato: Sereno Sereno 30 62 1017 vento: Nord S 14.8
30 Agosto 2026 08:51 tempo osservato: Sereno Sereno 28 69 1017 vento: Nord S 16.7
30 Agosto 2026 07:51 tempo osservato: Sereno Sereno 26 78 1016 vento: Nord S 13
30 Agosto 2026 06:51 tempo osservato: Sereno Sereno 26 78 1016 vento: Nord S 13
30 Agosto 2026 05:51 tempo osservato: Sereno Sereno 26 78 1015 vento: Nord S/SO 13
30 Agosto 2026 04:51 tempo osservato: Sereno Sereno 26 78 1015 vento: Nord S 9.3
30 Agosto 2026 03:51 tempo osservato: Sereno Sereno 27 74 1015 vento: Nord S/SO 14.8
30 Agosto 2026 02:51 tempo osservato: Sereno Sereno 28 69 1015 vento: Nord S 13
30 Agosto 2026 01:51 tempo osservato: Sereno Sereno 28 69 1015 vento: Nord S 14.8